Air Resources Laboratory banner image
Air Resources Laboratory web site National Oceanic and Atmospheric Administration (NOAA)

nv roundup


Office: REV

ASUS45 KREV 151510
RWRNV
NEVADA REGIONAL WEATHER ROUNDUP
NATIONAL WEATHER SERVICE RENO NV
700 AM PST FRI DEC 15 2017

NOTE: "FAIR" INDICATES FEW OR NO CLOUDS BELOW 12,000 FEET WITH NO
SIGNIFICANT WEATHER AND/OR OBSTRUCTIONS TO VISIBILITY.

NVZ001-003-004-151600-
WESTERN NEVADA

CITY           SKY/WX    TMP DP  RH WIND       PRES   REMARKS
RENO           MOCLDY    22  17  81 CALM      30.30F
CARSON CITY    FAIR      23  16  74 NW5       30.34S
MINDEN         FAIR      10   7  85 S3        30.34S
PYRAMID LAKE     N/A     34 N/A N/A S6          N/A
FALLON         CLOUDY     9   4  80 CALM      30.33R
LOVELOCK       CLOUDY     8   2  76 CALM      30.32S
HAWTHORNE      CLEAR     23  18  80 W5        30.32R
$$

NVZ002-CAZ072-073-151600-
NORTHERN AND CENTRAL SIERRA

CITY           SKY/WX    TMP DP  RH WIND       PRES   REMARKS
S. LAKE TAHOE  PTCLDY    19  15  84 S6        30.34F
SQUAW VLY 8000 NOT AVBL
BLUE CANYON    PTCLDY    55  -1  10 SE5       30.30S
MAMMOTH LAKES  FAIR       9   3  78 CALM      30.38S
$$

NVZ030-031-036-151600-
NORTHERN NEVADA

CITY           SKY/WX    TMP DP  RH WIND       PRES   REMARKS
ELKO           MOCLDY     9   6  88 CALM      30.31F
WINNEMUCCA     CLOUDY    10   4  76 W5        30.30R
WENDOVER       FOG       13  11  92 CALM      30.34F VSB<1/4
$$

NVZ035-037-151600-
CENTRAL NEVADA

CITY           SKY/WX    TMP DP  RH WIND       PRES   REMARKS
ELY            PTCLDY    11   0  61 S14       30.30F WCI  -5
EUREKA           N/A     15   8  73 SW10      30.30S
$$

NVZ013-014-151600-
SOUTH CENTRAL NEVADA

CITY           SKY/WX    TMP DP  RH WIND       PRES   REMARKS
TONOPAH        MOCLDY    20   1  43 N10       30.33F
$$

NVZ017-020-022-151600-
SOUTHERN NEVADA

CITY           SKY/WX    TMP DP  RH WIND       PRES   REMARKS
LAS VEGAS      PTCLDY    42  15  33 SW5       30.28S
N. LAS VEGAS   CLEAR     39  19  44 CALM      30.28S
NELLIS AFB     CLEAR     35  12  39 SW3       30.29R
HENDERSON      HAZE      37  12  35 S13       30.29F VSB 1/2
MERCURY        PTCLDY    35  11  36 CALM      30.28S
$$




Office: LKN ASUS65 KLKN 151437 RTPLKN Regional Temperature And Precipitation Table...Early Morning National Weather Service Elko NV 637 AM PST Fri Dec 15 2017 ***Automated Airport Stations*** Values represent lows over the last 12 hours... Highs over the last 24 hours and precipitation over the last 24 hours...ending at 4 AM PST/5 AM PDT today. .BR LKN 1215 P DH04/TAIRZX/DH04/TAIRZP/PPDRZZ/SFDRZZ/SDIRZZ : :ID Station Elev / Max / Min / Pcpn / :.................................................................... : EKO : Elko ASOS 5074 : 43 / 11 / 0.00 / ELY : Ely ASOS 6262 : 46 / 11 / 0.00 / P68 : Eureka ASOS 5936 : 45 / 14 / 0.00 / TPH : Tonopah ASOS 5395 : 58 / 20 / 0.00 / ENV : Wendover AWOS 4236 : 37 / 13 / 0.00 / WMC : Winnemucca ASOS 4314 : 47 / 8 / 0.00 / .END ***Manual synoptic reporting stations in north and central Nevada*** Values reflect the previous 24 hours ending at 4 AM PST/5 AM PDT *Snow stations may only report during periods of snowfall* .BR LKN 1215 P DH04/TAIRZX/TAIRZN/PPDRZZ/SFDRZZ/SDIRZZ : Snow Snow :ID Station Elev Max / Min / Pcpn / Fall / Dpth :.................................................................... : TLKN2 : Elko NWS Office 5235 : 43 / 10 / 0.00 / 0.0 / T TELN2 : Ely Snow 6487 : M / M / M / M / M TWIN2 : Winnemucca Snow 4355 : M / M / M / M / M .END ***Cooperative stations in north and central Nevada*** Values reflect the previous 24 hours Report time as indicated .BR LKN 1215 P DH04/TAIRZX/TAIRZN/PPDRZZ/SFDRZZ/SDIRZZ : Snow Snow :ID Station Elev Time / Max / Min / Pcpn / Fall / Dpth :.................................................................... : MOMN2 : Moorman Ranch 6539 5 AM: 48 / 8 / 0.00 / 0.0 / 0 .END M = Missing data T = Trace amounts ASOS = Automated Surface Observing System AWOS = Automated Weather Observation System NWS = National Weather Service DCP = Data Collection Platform These data are preliminary and have not undergone final quality control (QC) by NCEI. Therefore, these data are subject to revision. Final and certified data can be accessed at the National Centers For Environmental Information (NCEI) - www.ncei.noaa.gov $$